Dauntless Aviation
Greetings, Guest! To participate, [sign up for a free account] or [log in]
Airports Europe Germany
EDSW

Altdorf-Wallburg

Altdorf-Wallburg, GERMANY

Airport Info
Edit

Location

Latitude / Longitude: 48°16'11"N / 7°50'31"E
  48°16.188'N / 7°50.532'E
  48.2698 / 7.8422
Satellite photo at:
Airport distance calculator
From:
Weather Reports

METAR

LFST
18.2nm NW
LFST 290330Z AUTO 31003KT 9999 BKN056 BKN072 OVC190 13/12 Q1014
EDSB
32.3nm N
EDSB 290350Z VRB03KT 9999 VCSH FEW048 BKN055 13/09 Q1014

TAF

LFST
18.2nm NW
TAF LFST 282300Z 2900/2924 30008KT CAVOK BECMG 2900/2903 VRB03KT BECMG 2908/2911 24008KT PROB40 TEMPO 2910/2918 24015G30KT 5000 SHRA SCT040TCU BKN050 PROB30 TEMPO 2910/2915 4000 SHRA FEW040CB
EDSB
32.3nm N
TAF EDSB 290300Z 2904/2924 VRB03KT CAVOK BECMG 2908/2912 23006KT PROB30 TEMPO 2910/2918 SHRA BKN040CB
Safelog

 

Dauntless Aviation

© 2007-2015 Dauntless Aviation, all rights reserved
Information provided via PilotNav comes from a variety of official and unofficial data sources. As errors are possible, do not use PilotNav for primary flight planning purposes. Verify any information that you receive via PilotNav with current and canonical charts and other official documents. The material in this database is subject to database copyrights held by Dauntless Aviation and may not be copied without the express permission of Dauntless Aviation - licenses for use of part of all of this data are available for purchase; enquire via the Dauntless Aviation helpdesk. A number of mechanisms and markers exist in the database to protect against and identify infringement / copyright. Automated queries against this website are stictly prohibited, and all activity is logged and analyzed.